Overview Statistics Trail Chart Weather Telemetry Raw packets
 

This is the latest recevied weather packets stored in our database for station/object KG5MMT-12. If no packets are shown the sender has not sent any weather packets the latest 10 day(s).

<< 101 102 103 104 105 106 107 >>
Time Temp. Humidity Pressure Rain* Wind** Luminosity Snow
1787936357 26.67° C 34% 0 hPa 0 mm - - -
1787936057 26.67° C 36% 0 hPa 0 mm - - -
1787935757 26.67° C 37% 0 hPa 0 mm - - -
1787935457 26.11° C 38% 0 hPa 0 mm - - -
1787935157 26.11° C 41% 0 hPa 0 mm - - -
1787934857 26.11° C 40% 0 hPa 0 mm - - -
1787934557 25.56° C 41% 0 hPa 0 mm - - -
1787934257 25° C 45% 0 hPa 0 mm - - -
1787933957 25° C 45% 0 hPa 0 mm - - -
1787933657 24.44° C 47% 0 hPa 0 mm - - -
1787933357 23.89° C 47% 0 hPa 0 mm - - -
1787933057 23.89° C 46% 0 hPa 0 mm - - -
1787932757 23.33° C 51% 0 hPa 0 mm - - -
1787932457 23.33° C 52% 0 hPa 0 mm - - -
1787932157 22.78° C 53% 0 hPa 0 mm - - -
1787931857 22.78° C 55% 0 hPa 0 mm - - -
1787931557 22.22° C 57% 0 hPa 0 mm - - -
1787931257 21.67° C 56% 0 hPa 0 mm - - -
1787930957 21.67° C 59% 0 hPa 0 mm - - -
1787930657 21.11° C 60% 0 hPa 0 mm - - -
1787930357 20.56° C 57% 0 hPa 0 mm - - -
1787930057 20.56° C 61% 0 hPa 0 mm - - -
1787929757 20° C 66% 0 hPa 0 mm - - -
1787929457 18.89° C 64% 0 hPa 0 mm - - -
1787929157 18.33° C 68% 0 hPa 0 mm - - -

* Rain latest hour (hover to see other rain measurements)
** Current wind speed in m/s (hover to see current wind gust speed)